Flag for Greece Weather past 2 weeks in Glyfada, Greece

Now
70 °F

Clear.


Feels Like: 70 °F
Forecast: 64 / 78 °F
Wind: 1 mph from North

Location: Eleftherios Venizelos International Airport

Current Time: May 24, 2015 at 11:08:16 PM

Latest Report: May 24, 2015 at 10:20 PM


Visibility: 10 mi

Pressure: 29.80 "Hg

Humidity: 43%

Dew point: 46 °F

Location of GlyfadaLocation

Historic Weather in Glyfada — Graph

°F

Glyfada temperature yesterday

Maximum temperature yesterday: 84 °F (at 2:50 PM)
Minimum temperature yesterday: 57 °F (at 3:50 AM)
Average temperature yesterday: 71 °F

Past Weeks' High & Low Weather Summary

 TemperatureHumidityPressure
High84 °F (May 22, 2:20 PM)94% (May 21, 2:50 AM)30.15 "Hg (May 21, 2:50 AM)
Low50 °F (May 18, 5:20 AM)23% (May 10, 2:20 PM)29.74 "Hg (May 19, 5:20 PM)
Average69 °F54%29.94 "Hg
* Reported May 9 9:20 PM — May 24 9:20 PM, Glyfada, Weather by CustomWeather, © 2015

Note: Actual official high and low records may vary slightly from our data, if they occured in-between our weather recording intervals... More about our weather records

Advertising

Glyfada weather history for previous 24 hours

 ConditionsComfort  
Time TempWeatherWind HumidityBarometerVisibility
9:20 PM
Sun, May 24
70 °FSunny.10 mph43%29.77 "Hg10 mi
8:50 PM68 °FSunny.9 mph60%29.77 "Hg10 mi
8:20 PM72 °FSunny.12 mph44%29.77 "Hg10 mi
7:50 PM72 °FSunny.14 mph50%29.77 "Hg10 mi
7:20 PM73 °FSunny.13 mph47%29.77 "Hg10 mi
6:50 PM75 °FSunny.14 mph41%29.77 "Hg10 mi
6:20 PM77 °FSunny.13 mph39%29.77 "Hg10 mi
5:50 PM77 °FPassing clouds.14 mph39%29.77 "HgN/A
5:20 PM79 °FPassing clouds.16 mph37%29.77 "HgN/A
4:50 PM81 °FPassing clouds.16 mph30%29.77 "HgN/A
4:20 PM81 °FPassing clouds.15 mph30%29.77 "HgN/A
3:50 PM81 °FPassing clouds.12 mph30%29.77 "HgN/A
3:20 PM81 °FPassing clouds.10 mph28%29.77 "HgN/A
2:50 PM81 °FPassing clouds.14 mph28%29.77 "HgN/A
2:20 PM81 °FPassing clouds.17 mph28%29.77 "HgN/A
1:50 PM82 °FScattered clouds.13 mph25%29.77 "HgN/A
1:20 PM81 °FScattered clouds.13 mph26%29.77 "HgN/A
12:50 PM81 °FScattered clouds.14 mph28%29.77 "HgN/A
12:20 PM79 °FPassing clouds.8 mph37%29.77 "HgN/A
11:50 AM79 °FPassing clouds.6 mph42%29.77 "HgN/A
11:20 AM79 °FPassing clouds.3 mph45%29.77 "HgN/A
10:50 AM77 °FPassing clouds.3 mph39%29.80 "HgN/A
10:20 AM77 °FPassing clouds.5 mph42%29.80 "HgN/A
9:50 AM75 °FPassing clouds.3 mph41%29.80 "HgN/A
9:20 AM73 °FPassing clouds.3 mph50%29.80 "HgN/A
8:50 AM70 °FSunny.2 mph64%29.80 "Hg10 mi
8:20 AM66 °FSunny.2 mph83%29.77 "Hg10 mi
7:50 AM64 °FSunny.1 mph83%29.77 "Hg10 mi
7:20 AM61 °FSunny.No wind88%29.77 "Hg10 mi
6:50 AM59 °FClear.3 mph88%29.77 "Hg10 mi
6:20 AM59 °FClear.3 mph88%29.77 "Hg10 mi
5:50 AM61 °FPassing clouds.1 mph88%29.77 "HgN/A
5:20 AM61 °FPassing clouds.3 mph83%29.77 "Hg6 mi
4:50 AM59 °FPassing clouds.2 mph94%29.77 "Hg5 mi
4:20 AM61 °FPassing clouds.1 mph88%29.77 "HgN/A
3:50 AM61 °FPassing clouds.No wind94%29.77 "HgN/A
3:20 AM59 °FPassing clouds.No wind94%29.77 "HgN/A
2:50 AM63 °FPassing clouds.1 mph94%29.77 "HgN/A
2:20 AM63 °FPassing clouds.2 mph94%29.77 "HgN/A
1:50 AM63 °FPassing clouds.6 mph88%29.80 "HgN/A
1:20 AM63 °FPassing clouds.5 mph94%29.80 "HgN/A
12:50 AM64 °FPassing clouds.3 mph88%29.80 "HgN/A
12:20 AM64 °FPassing clouds.6 mph94%29.80 "HgN/A
11:50 PM
Sat, May 23
66 °FPassing clouds.5 mph73%29.80 "HgN/A
11:20 PM68 °FPassing clouds.5 mph73%29.80 "HgN/A
Weather by CustomWeather, © 2015

See weather overviewHow to use our weather pages